Location: Chircca
(13.7944°S, 72.0608°W)
Time: 05:28:42
(UTC+00:00)

Centaur AC-64 - Pass Details

Date: 14 July 2020
Orbit: 294 x 25732 km, 23.0° (Epoch: 13 August)

Event Time Altitude Azimuth Distance (km) Brightness Sun altitude
Rises 10:09:30 0° 292° (WNW) 10,868 8.4 -15.2°
Reaches altitude 10° 10:21:36 10° 291° (WNW) 6,359 7.2 -12.5°
Maximum altitude 10:34:30 88° 20° (NNE) 829 3.2 -9.5°
Drops below altitude 10° 10:37:36 10° 109° (ESE) 1,643 5.6 -8.8°
Sets 10:38:51 0° 109° (ESE) 2,260 6.4 -8.5°
